Date,TemperatureHighF,TemperatureAvgF,TemperatureLowF,DewpointHighF,DewpointAvgF,DewpointLowF,HumidityHigh,HumidityAvg,HumidityLow,PressureMaxIn,PressureMinIn,WindSpeedMaxMPH,WindSpeedAvgMPH,GustSpeedMaxMPH,PrecipitationSumIn
2013-3-1,64.0,53.8,47.0,18.0,12.2,4.0,25,19,14,0.00,40.00,9,6,19,0.00
2013-3-2,63.0,55.7,49.0,20.0,16.5,13.0,27,21,15,0.00,40.00,23,7,51,0.00
2013-3-3,54.0,48.9,42.0,31.0,26.1,20.0,56,41,27,0.00,40.00,26,16,51,0.00
2013-3-4,61.0,50.3,41.0,29.0,21.9,14.0,60,35,18,0.00,40.00,26,10,43,0.00
2013-3-5,58.0,50.5,44.0,27.0,20.8,8.0,45,32,17,0.00,40.00,22,11,42,0.00
2013-3-6,45.0,40.8,38.0,30.0,23.7,14.0,64,51,33,0.00,40.00,38,19,56,0.00
2013-3-7,47.0,39.4,33.0,29.0,23.5,19.0,70,53,40,0.00,40.00,24,11,46,0.00
2013-3-8,38.0,34.1,31.0,30.0,26.1,22.0,93,73,57,0.00,40.00,25,9,41,0.13
2013-3-9,53.0,40.6,33.0,26.0,16.8,-5.0,72,43,12,0.00,40.00,25,15,43,0.01
2013-3-10,62.0,49.9,38.0,11.0,-0.3,-9.0,21,13,7,0.00,40.00,10,4,23,0.00
2013-3-11,63.0,54.6,45.0,14.0,3.8,-8.0,21,13,8,0.00,40.00,7,5,13,0.00
2013-3-12,67.0,57.6,50.0,16.0,7.1,2.0,24,14,8,0.00,40.00,9,6,16,0.00
2013-3-13,72.0,61.2,53.0,17.0,13.1,11.0,19,15,11,0.00,40.00,10,6,13,0.00
2013-3-14,76.0,65.2,57.0,24.0,16.1,11.0,21,15,10,0.00,40.00,14,7,25,0.00
2013-3-15,75.0,66.2,60.0,37.0,22.2,10.0,38,20,8,0.00,40.00,27,11,38,0.00
2013-3-16,69.0,60.8,51.0,34.0,24.0,11.0,51,27,11,0.00,40.00,28,17,48,0.00
2013-3-17,63.0,57.0,50.0,27.0,16.0,-15.0,39,22,5,0.00,40.00,28,16,48,0.00
2013-3-18,66.0,57.2,49.0,24.0,9.4,-29.0,30,17,2,0.00,40.00,26,12,44,0.00
2013-3-19,66.0,56.2,48.0,27.0,22.0,17.0,39,27,16,0.00,40.00,29,15,44,0.00
2013-3-20,59.0,52.4,46.0,32.0,26.3,21.0,51,37,25,0.00,40.00,29,14,52,0.00
2013-3-21,66.0,57.6,46.0,29.0,14.2,-13.0,51,20,5,0.00,40.00,27,14,54,0.00
2013-3-22,60.0,53.8,44.0,27.0,17.4,-6.0,35,24,9,0.00,40.00,15,8,29,0.00
2013-3-23,58.0,51.3,44.0,11.0,-1.1,-16.0,21,12,7,0.00,40.00,17,7,31,0.00
2013-3-24,62.0,51.5,42.0,20.0,4.0,-7.0,30,16,7,0.00,40.00,8,5,15,0.00
2013-3-25,65.0,55.9,48.0,18.0,13.8,-4.0,28,19,9,0.00,40.00,16,6,40,0.00
2013-3-26,61.0,53.6,49.0,30.0,15.2,-5.0,48,24,9,0.00,40.00,29,17,49,0.00
2013-3-27,61.0,54.2,49.0,28.0,24.1,21.0,37,31,23,0.00,40.00,26,17,42,0.00
2013-3-28,62.0,57.4,52.0,32.0,25.7,21.0,35,29,25,0.00,40.00,20,14,37,0.00
2013-3-29,67.0,59.0,51.0,27.0,19.6,13.0,31,22,14,0.00,40.00,18,8,25,0.00
2013-3-30,68.0,60.7,54.0,30.0,21.9,-99.9,33,24,13,0.00,40.00,14,7,29,0.00
2013-3-31,59.0,50.8,43.0,37.0,33.3,27.0,72,53,33,0.00,40.00,21,13,50,0.00